User: anonymous   Login
Location: Carabito
(9.8355°N, 67.9249°W)
Time: 07:50:42
(UTC+00:00)
Language:

COSMOS 2455 - Orbit

View from above orbital plane
View from above orbital plane
View from above satellite
View from above satellite

Ground track
Ground track

The orbit data is extracted from the following two-line orbital elements,

1 36095U 09063A   24204.19173492  .00000061  00000-0  98087-4 0  9992
2 36095  67.1477 142.9802 0009312 270.1901  89.8117 13.96915203748246
Epoch (UTC): 22 July 2024 04:36:05
Eccentricity: 0.0009312
inclination: 67.1477°
perigee height: 898 km
apogee height: 911 km
right ascension of ascending node: 142.9802°
argument of perigee: 270.1901°
revolutions per day: 13.96915203
mean anomaly at epoch: 89.8117°
orbit number at epoch: 74824

The dashed part of the orbit path shows where the satellite is in the earth's shadow,  

DLR